Regional Weather Roundup
Issued by NWS Mt. Holly, NJ

Home | Current Version | Previous Version | Text Only | Print | Product List | Glossary On
Versions: 1 2 3 4 5 6 7 8 9 10 11 12 13 14 15 16 17 18 19 20 21 22 23 24 25 26 27 28 29 30 31 32 33 34 35 36 37 38 39 40 41 42 43 44 45 46 47 48 49
000
ASUS41 KPHI 030212
RWRPHI

REGIONAL WEATHER ROUNDUP
NATIONAL WEATHER SERVICE MOUNT HOLLY NJ
1000 PM EDT SUN AUG 02 2015

NOTE:  "FAIR" INDICATES FEW OR NO CLOUDS BELOW 12,000 FEET WITH NO
SIGNIFICANT WEATHER AND/OR OBSTRUCTIONS TO VISIBILITY.

 * = STATION DOES NOT REPORT PRECIPITATION (E.G. RAIN, SNOW, ETC.)
        OR FOG.

NJZ015>026-030300-
SOUTHERN NEW JERSEY

CITY           SKY/WX    TMP DP  RH WIND       PRES   REMARKS
POMONA         MOCLDY    76  64  66 S6        29.92R
RIO GRANDE*    MOCLDY    73  66  78 S5        29.94R
MILLVILLE      MOCLDY    72  63  73 CALM      29.92R
WRIGHTSTOWN    PTCLDY    72  58  62 SE1       29.88S
MOUNT HOLLY    PTCLDY    70  56  61 S3        29.90S
TRENTON        CLEAR     77  57  50 SW3       29.89S

$$
NJZ001>014-030300-
NORTHERN NEW JERSEY

CITY           SKY/WX    TMP DP  RH WIND       PRES   REMARKS
SUSSEX         CLEAR     67  61  81 CALM      29.88F
ANDOVER*         N/A     66  63  90 CALM      29.89F
MORRISTOWN     CLEAR     68  59  73 CALM      29.89S
NEWARK         PTCLDY    83  53  35 W7        29.87F
TETERBORO      CLEAR     77  58  51 CALM      29.86F
CALDWELL       CLEAR     78  55  44 CALM      29.88F
SOMERVILLE     CLEAR     68  59  73 CALM      29.86F
ALLAIRE*       PTCLDY    75  61  60 S5        29.90F
TOMS RIVER*      N/A     72  64  78 S5        29.91S

$$
PAZ043-044-047-054-055-060>062-066>071-030300-
EASTERN PENNSYLVANIA

CITY           SKY/WX    TMP DP  RH WIND       PRES   REMARKS
PHILADELPHIA   PTCLDY    82  58  43 SW9       29.90F
NORTH PHILA    CLEAR     79  55  43 CALM      29.91S
BLUE BELL      CLEAR     68  64  88 CALM      29.89F
DOYLESTOWN     CLEAR     71  58  63 S5        29.89F
QUAKERTOWN*    CLEAR     70  63  78 CALM      29.91F
POTTSTOWN      CLEAR     74  61  63 S3        29.91F
LANCASTER      CLEAR     75  61  61 S6        29.89F
COATESVILLE    CLEAR     72  63  73 CALM      29.92F
READING        CLEAR     74  60  61 S3        29.87F
ALLENTOWN      CLEAR     75  59  57 SW6       29.88F
MOUNT POCONO   CLEAR     68  58  70 W3        29.94F
HAZLETON       CLEAR     72  59  64 S3        29.95S
WILKES BARRE   CLEAR     77  57  50 VRB5      29.88S

$$
DEZALL-MDZ008-012-015-019-020-030300-
DELAWARE AND EASTERN MARYLAND

CITY           SKY/WX    TMP DP  RH WIND       PRES   REMARKS
WILMINGTON     CLEAR     78  59  51 SW3       29.91S
DOVER          PTCLDY    74  68  82 S6        29.91R
GEORGETOWN     PTCLDY    71  67  87 CALM      29.93R
EASTON         PTCLDY    76  65  68 CALM      29.96R
PATUXENT       PTCLDY    67  63  87 CALM      29.93R
OCEAN CITY     MOCLDY    77  72  84 CALM      29.93R
WALLOPS ISLAND MOCLDY    75  73  93 SW3       29.94R
CAMBRIDGE      PTCLDY    72  64  78 CALM      29.93R
SALISBURY      MOCLDY    74  71  91 CALM      29.93R

$$
PAZ001-021-NYZ056-072-MDZ011-DCZ001-030300-
OTHER NEARBY LOCATIONS

CITY           SKY/WX    TMP DP  RH WIND       PRES   REMARKS
HARRISBURG     PTCLDY    79  61  53 SW9       29.88R
WILLIAMSPORT   CLEAR     77  61  57 CALM      29.84R
BINGHAMTON     CLEAR     70  58  65 S7        29.88R
NEW YORK CITY  CLEAR     78  61  55 CALM      29.91S
BALTIMORE      PTCLDY    75  59  57 SW5       29.90S
WASHINGTON DC  CLEAR     80  61  52 S7        29.92S

$$



USA.gov is the U.S. government's official web portal to all federal, state and local government web resources and services.